sat.trackr.live / text

‹ back to catalog

QIANFAN-28

NORAD 61561 · 2024-185K

PAYLOAD ACTIVE UNKNOWN

§ Identity

Operator
Country
PRC
Launch date
2024-10-15
Launch site
TAISC
Launch vehicle
Mass (kg)
RCS (m²)

External: N2YO · Heavens-Above · Gunter

§ Orbital elements

Epoch: 2026-05-25T02:48:28.603872Z

Period
100.82 min
Inclination
88.9855°
Eccentricity
0.0009456
Mean motion
14.28349052 rev/d
Perigee alt
790.5 km
Apogee alt
804.0 km
Semi-major
7,175.4 km
B*
2.4347e-4
RAAN
57.7903°
Arg perigee
103.6997°
Mean anomaly
256.5251°
Rev number
9,349

§ Raw data

QIANFAN-281 61561U 24185K   26145.11699773  .00000623  00000+0  24347-3 0  99932 61561  88.9855  57.7903 0009456 103.6997 256.5251 14.28349052 93493

JSON: /api/v1/satellites/61561 · /tle

For live sub-satellite position, see the globe view (requires WebGL).

§ Visibility from observer

Set your observer location to see the next 7 days of passes ≥ 10°. The values pass through the URL so the page stays shareable.

No JS? Fill the form by hand. The geolocation button needs JavaScript.